DW2802 Ogijares ES current weather conditions

sailwx.info

Wind from 102

Air temperature 15.0° C
Dewpoint 7.3° C

Last reported at 2017-Apr-23 22:58 UTC.
Time now 2017-Apr-23 23:39 UTC

Location: N 37°07' W 003°36'.
View on Google Maps.

See reports from other nearby stations

  
Tides and Currents Weather Stations Pressure Air Temp Water Temp Dewpoint Dewpoint Depression Visibility Wind Speed Wind Dir Waves Ship Positions
date/time (UTC)wind fromknots sea level pressurealtimeterstation pressurevisibilityair tempwater tempwave heightnotes
2017-Apr-23 22:58 102 15.0
2017-Apr-23 22:43 102 15.6
2017-Apr-23 22:27 102 15.6
2017-Apr-23 22:13 102 16.1
2017-Apr-23 21:57 102 16.7
2017-Apr-23 21:43 102 17.2
2017-Apr-23 21:27 102 17.2
2017-Apr-23 21:13 102 17.2
2017-Apr-23 20:57 102 17.8
2017-Apr-23 20:42 102 17.8
2017-Apr-23 20:27 102 18.3
2017-Apr-23 20:12 102 18.9
2017-Apr-23 19:57 090 2 gusting 6 18.9
2017-Apr-23 19:42 119 19.4
2017-Apr-23 19:27 142 3 gusting 7 19.4
2017-Apr-23 19:12 105 4 gusting 10 19.4
2017-Apr-23 18:57 145 8 gusting 13 19.4
2017-Apr-23 18:42 163 9 gusting 14 18.9
2017-Apr-23 18:27 142 6 gusting 12 19.4
2017-Apr-23 18:12 162 10 gusting 16 20.0
2017-Apr-23 17:57 199 8 gusting 13 20.0
2017-Apr-23 17:42 147 7 gusting 14 20.6
2017-Apr-23 17:27 169 5 gusting 12 21.1
2017-Apr-23 17:12 157 4 gusting 9 21.1
2017-Apr-23 16:57 169 5 gusting 12 21.7
2017-Apr-23 16:42 214 3 gusting 12 21.7
2017-Apr-23 16:27 222 7 gusting 14 21.7
2017-Apr-23 16:12 180 9 gusting 13 21.7
2017-Apr-23 15:57 191 8 gusting 13 21.7
2017-Apr-23 15:42 207 8 gusting 15 21.7
2017-Apr-23 15:27 225 8 gusting 13 21.7
2017-Apr-23 15:12 190 9 gusting 13 22.2
2017-Apr-23 14:57 240 8 gusting 13 22.2
2017-Apr-23 14:42 218 6 gusting 15 22.2
2017-Apr-23 14:27 174 4 gusting 9 22.2
2017-Apr-23 14:12 168 1 gusting 8 22.2
2017-Apr-23 13:57 203 7 gusting 10 21.7
2017-Apr-23 13:42 196 3 gusting 9 21.7
2017-Apr-23 13:28 206 5 gusting 9 21.7
2017-Apr-23 13:12 212 6 gusting 11 21.1
2017-Apr-23 12:57 249 5 gusting 9 21.1
2017-Apr-23 12:42 252 5 gusting 10 21.1
2017-Apr-23 12:27 241 3 gusting 13 20.6
2017-Apr-23 12:12 253 6 gusting 12 20.6
2017-Apr-23 11:57 288 5 gusting 11 20.6
2017-Apr-23 11:27 201 5 gusting 13 20.0
2017-Apr-23 11:12 209 6 gusting 10 20.0
2017-Apr-23 10:56 291 3 gusting 10 20.6
2017-Apr-23 10:41 084 20.6
2017-Apr-23 10:26 258 1 gusting 5 19.4
2017-Apr-23 10:11 343 19.4
2017-Apr-23 09:56 327 18.9
2017-Apr-23 09:41 301 0 gusting 5 17.8
2017-Apr-23 09:26 048 0 gusting 2 17.8
2017-Apr-23 09:11 051 17.8
2017-Apr-23 08:56 053 17.2
2017-Apr-23 08:41 053 16.1
2017-Apr-23 08:26 053 15.0
2017-Apr-23 08:11 053 14.4
2017-Apr-23 07:56 057 13.9
2017-Apr-23 07:41 057 13.9
2017-Apr-23 07:26 057 13.3
2017-Apr-23 07:11 112 0 gusting 3 13.3
2017-Apr-23 06:56 144 13.3
2017-Apr-23 06:41 144 12.8
2017-Apr-23 06:26 144 12.2
2017-Apr-23 06:11 144 12.2
2017-Apr-23 05:56 144 12.2
2017-Apr-23 05:40 144 11.7
2017-Apr-23 05:25 144 12.2
2017-Apr-23 05:10 144 12.2
2017-Apr-23 04:55 144 12.2
2017-Apr-23 04:40 144 12.2
2017-Apr-23 04:25 144 12.2
2017-Apr-23 04:10 144 12.8
2017-Apr-23 03:55 144 12.8
2017-Apr-23 03:40 144 12.8
2017-Apr-23 03:25 146 12.8
2017-Apr-23 03:11 147 12.8
2017-Apr-23 02:55 147 12.8
2017-Apr-23 02:40 147 12.8
2017-Apr-23 02:25 147 12.8
2017-Apr-23 02:10 147 12.2
2017-Apr-23 01:55 147 12.2
2017-Apr-23 01:40 147 12.2
2017-Apr-23 01:25 147 12.8
2017-Apr-23 01:10 147 12.2
2017-Apr-23 00:55 147 12.8
2017-Apr-23 00:40 147 12.8
2017-Apr-23 00:25 147 13.3
2017-Apr-23 00:11 147 13.3
2017-Apr-22 23:55 147 13.9
2017-Apr-22 23:40 147 13.9
2017-Apr-22 23:25 147 14.4
2017-Apr-22 23:10 147 13.9
2017-Apr-22 22:55 147 13.9
2017-Apr-22 22:40 147 14.4
2017-Apr-22 22:25 147 15.0
2017-Apr-22 22:10 147 15.6
2017-Apr-22 21:55 147 16.1
2017-Apr-22 21:40 147 16.1
2017-Apr-22 21:25 147 16.1
2017-Apr-22 21:10 149 16.1
2017-Apr-22 20:55 150 16.7
2017-Apr-22 20:40 150 16.7
2017-Apr-22 20:25 150 16.7
2017-Apr-22 20:10 150 16.7
2017-Apr-22 19:55 192 16.7
2017-Apr-22 19:40 202 16.7
2017-Apr-22 19:25 159 17.2
2017-Apr-22 19:10 152 17.2
2017-Apr-22 18:55 147 17.2
2017-Apr-22 18:40 149 18.3
2017-Apr-22 18:25 189 18.9
2017-Apr-22 18:10 190 19.4
2017-Apr-22 17:55 192 20.0
2017-Apr-22 17:40 193 20.0
2017-Apr-22 17:25 207 20.0
2017-Apr-22 17:10 213 20.0
2017-Apr-22 16:55 202 20.0
2017-Apr-22 16:40 195 20.6
2017-Apr-22 16:25 215 20.6
2017-Apr-22 16:10 187 19.4
2017-Apr-22 15:54 221 19.4
2017-Apr-22 15:39 211 20.6
2017-Apr-22 15:24 225 21.1
2017-Apr-22 15:09 140 20.6
2017-Apr-22 14:54 215 20.6
2017-Apr-22 14:39 234 7 gusting 9 20.6
2017-Apr-22 14:24 186 3 gusting 13 20.6
2017-Apr-22 14:09 222 7 gusting 13 20.6
2017-Apr-22 13:55 234 6 gusting 13 20.6
2017-Apr-22 13:39 306 1 gusting 14 20.6
2017-Apr-22 13:24 239 2 gusting 8 20.6
2017-Apr-22 13:09 283 20.6
2017-Apr-22 12:54 298 4 gusting 7 20.6
2017-Apr-22 12:39 275 2 gusting 6 20.0
2017-Apr-22 12:24 306 1 gusting 8 19.4
2017-Apr-22 12:09 260 2 gusting 7 18.9
2017-Apr-22 11:54 317 0 gusting 6 18.9
2017-Apr-22 11:39 302 2 gusting 6 18.9
2017-Apr-22 11:24 298 1 gusting 6 17.8
2017-Apr-22 11:09 283 17.2
2017-Apr-22 10:54 348 2 gusting 6 17.2
2017-Apr-22 10:39 355 17.2
2017-Apr-22 10:24 355 0 gusting 4 16.7
2017-Apr-22 10:09 338 15.6
2017-Apr-22 09:53 005 15.6
2017-Apr-22 09:38 302 2 gusting 5 14.4
2017-Apr-22 09:24 338 2 gusting 6 14.4
2017-Apr-22 09:08 298 0 gusting 4 13.9
2017-Apr-22 08:53 338 0 gusting 4 13.3
2017-Apr-22 08:38 339 3 gusting 5 12.8
2017-Apr-22 08:23 338 12.2
2017-Apr-22 08:08 338 2 gusting 5 11.7
2017-Apr-22 07:53 221 0 gusting 3 11.1
2017-Apr-22 07:38 221 1 gusting 3 10.0
2017-Apr-22 07:23 221 1 gusting 4 10.0
2017-Apr-22 07:08 221 9.4
2017-Apr-22 06:53 221 0 gusting 3 8.9
2017-Apr-22 06:23 221 1 gusting 2 7.8
2017-Apr-22 06:08 221 0 gusting 4 7.8
2017-Apr-22 05:53 221 1 gusting 3 7.8
2017-Apr-22 05:38 221 7.8
2017-Apr-22 05:23 221 0 gusting 2 7.8
2017-Apr-22 05:08 221 7.8
2017-Apr-22 04:53 221 2 gusting 5 7.8
2017-Apr-22 04:38 223 0 gusting 6 8.3
2017-Apr-22 04:23 228 2 gusting 4 8.9
2017-Apr-22 04:07 228 1 gusting 3 8.9
2017-Apr-22 03:52 228 8.9
2017-Apr-22 03:37 228 9.4
2017-Apr-22 03:22 228 10.0
2017-Apr-22 03:07 228 10.0
2017-Apr-22 02:52 228 10.0
2017-Apr-22 02:37 228 10.0
2017-Apr-22 02:22 228 0 gusting 2 10.0
2017-Apr-22 02:07 228 1 gusting 3 10.0
2017-Apr-22 01:52 228 1 gusting 4 10.6
2017-Apr-22 01:37 229 2 gusting 5 10.6
2017-Apr-22 01:22 240 1 gusting 4 10.6
2017-Apr-22 01:07 294 1 gusting 4 11.1
2017-Apr-22 00:52 298 5 gusting 8 11.1
2017-Apr-22 00:37 288 4 gusting 8 11.7
2017-Apr-22 00:22 292 3 gusting 8 12.2
2017-Apr-22 00:07 284 3 gusting 7 12.2
2017-Apr-21 23:52 355 0 gusting 1 12.8
2017-Apr-21 23:37 351 1 gusting 3 12.2
2017-Apr-21 23:22 298 0 gusting 2 12.8
2017-Apr-21 23:07 298 12.8